Time,TemperatureF,DewpointF,PressureIn,WindDirection,WindDirectionDegrees,WindSpeedMPH,WindSpeedGustMPH,Humidity,HourlyPrecipIn,Conditions,Clouds,dailyrainin,SoftwareType,DateUTC
2013-05-30 00:03:00,62.0,62.0,-100.00,SSE,160,0.0,2.0,98,0.00,,,-99.99,,2013-05-30 04:03:00,
2013-05-30 00:13:00,62.0,62.0,-100.00,South,175,0.0,1.0,98,0.00,,,-99.99,,2013-05-30 04:13:00,
2013-05-30 00:23:00,62.0,62.0,-100.00,West,260,1.0,2.0,98,0.00,,,-99.99,,2013-05-30 04:23:00,
2013-05-30 00:33:00,62.0,62.0,-100.00,SW,225,1.0,3.0,98,0.00,,,-99.99,,2013-05-30 04:33:00,
2013-05-30 00:42:00,62.0,62.0,-100.00,SSW,195,0.0,4.0,98,0.00,,,-99.99,,2013-05-30 04:42:00,
2013-05-30 00:53:00,62.0,62.0,-100.00,SW,225,0.0,1.0,98,0.00,,,-99.99,,2013-05-30 04:53:00,
2013-05-30 01:02:00,62.0,62.0,-100.00,WSW,255,1.0,2.0,98,0.00,,,-99.99,,2013-05-30 05:02:00,
2013-05-30 01:12:00,63.0,62.0,-100.00,South,185,0.0,3.0,98,0.00,,,-99.99,,2013-05-30 05:12:00,
2013-05-30 01:22:00,62.0,62.0,-100.00,SSE,160,1.0,2.0,98,0.00,,,-99.99,,2013-05-30 05:22:00,
2013-05-30 01:32:00,62.0,61.0,-100.00,SSW,210,0.0,2.0,98,0.00,,,-99.99,,2013-05-30 05:32:00,
2013-05-30 01:42:00,62.0,61.0,-100.00,SE,145,0.0,1.0,98,0.00,,,-99.99,,2013-05-30 05:42:00,
2013-05-30 01:52:00,62.0,61.0,-100.00,ESE,105,0.0,2.0,98,0.00,,,-99.99,,2013-05-30 05:52:00,
2013-05-30 02:01:00,61.0,61.0,-100.00,North,-999,-999.0,-999.0,98,0.00,,,-99.99,,2013-05-30 06:01:00,
2013-05-30 02:12:00,60.0,60.0,-100.00,North,-999,-999.0,-999.0,98,0.00,,,-99.99,,2013-05-30 06:12:00,
2013-05-30 02:22:00,60.0,60.0,-100.00,SSW,200,1.0,2.0,98,0.00,,,-99.99,,2013-05-30 06:22:00,
2013-05-30 02:32:00,60.0,59.0,-100.00,South,185,0.0,1.0,98,0.00,,,-99.99,,2013-05-30 06:32:00,
2013-05-30 02:42:00,60.0,59.0,-100.00,SSW,205,0.0,1.0,98,0.00,,,-99.99,,2013-05-30 06:42:00,
2013-05-30 02:52:00,59.0,58.0,-100.00,North,-999,-999.0,-999.0,98,0.00,,,-99.99,,2013-05-30 06:52:00,
2013-05-30 03:01:00,59.0,59.0,-100.00,NNW,340,1.0,2.0,98,0.00,,,-99.99,,2013-05-30 07:01:00,
2013-05-30 03:12:00,59.0,59.0,-100.00,East,90,0.0,1.0,98,0.00,,,-99.99,,2013-05-30 07:12:00,
2013-05-30 03:22:00,60.0,59.0,-100.00,North,5,1.0,2.0,98,0.00,,,-99.99,,2013-05-30 07:22:00,
2013-05-30 03:32:00,60.0,59.0,-100.00,NNE,30,1.0,2.0,98,0.00,,,-99.99,,2013-05-30 07:32:00,
2013-05-30 03:42:00,60.0,59.0,-100.00,NNE,20,1.0,2.0,98,0.00,,,-99.99,,2013-05-30 07:42:00,
2013-05-30 03:52:00,58.0,58.0,-100.00,SW,225,1.0,2.0,98,0.00,,,-99.99,,2013-05-30 07:52:00,
2013-05-30 04:02:00,58.0,57.0,-100.00,SW,225,1.0,2.0,98,0.00,,,-99.99,,2013-05-30 08:02:00,
2013-05-30 04:11:00,58.0,57.0,-100.00,SW,215,1.0,2.0,98,0.00,,,-99.99,,2013-05-30 08:11:00,
2013-05-30 04:22:00,58.0,57.0,-100.00,SSW,205,1.0,2.0,98,0.00,,,-99.99,,2013-05-30 08:22:00,
2013-05-30 04:32:00,58.0,57.0,-100.00,SSW,205,1.0,1.0,98,0.00,,,-99.99,,2013-05-30 08:32:00,
2013-05-30 04:42:00,57.0,57.0,-100.00,SSW,205,1.0,1.0,98,0.00,,,-99.99,,2013-05-30 08:42:00,
2013-05-30 04:52:00,57.0,57.0,-100.00,SW,220,1.0,2.0,98,0.00,,,-99.99,,2013-05-30 08:52:00,
2013-05-30 05:01:00,57.0,57.0,-100.00,WSW,245,1.0,2.0,98,0.00,,,-99.99,,2013-05-30 09:01:00,
2013-05-30 05:11:00,57.0,57.0,-100.00,SW,215,1.0,2.0,98,0.00,,,-99.99,,2013-05-30 09:11:00,
2013-05-30 05:21:00,57.0,57.0,-100.00,SW,235,1.0,2.0,98,0.00,,,-99.99,,2013-05-30 09:21:00,
2013-05-30 05:33:00,58.0,57.0,-100.00,SW,230,1.0,2.0,98,0.00,,,-99.99,,2013-05-30 09:33:00,
2013-05-30 05:42:00,58.0,57.0,-100.00,WSW,245,1.0,2.0,98,0.00,,,-99.99,,2013-05-30 09:42:00,
2013-05-30 05:53:00,60.0,59.0,-100.00,SSW,200,0.0,2.0,98,0.00,,,-99.99,,2013-05-30 09:53:00,
2013-05-30 06:03:00,60.0,60.0,-100.00,SSW,205,1.0,2.0,98,0.00,,,-99.99,,2013-05-30 10:03:00,
2013-05-30 06:13:00,61.0,60.0,-100.00,SSE,150,1.0,3.0,98,0.00,,,-99.99,,2013-05-30 10:13:00,
2013-05-30 06:23:00,62.0,61.0,-100.00,SW,220,1.0,3.0,98,0.00,,,-99.99,,2013-05-30 10:23:00,
2013-05-30 06:32:00,62.0,62.0,-100.00,SSW,210,1.0,4.0,98,0.00,,,-99.99,,2013-05-30 10:32:00,
2013-05-30 06:42:00,63.0,63.0,-100.00,SW,230,1.0,4.0,98,0.00,,,-99.99,,2013-05-30 10:42:00,
2013-05-30 06:52:00,64.0,64.0,-100.00,SW,215,1.0,2.0,98,0.00,,,-99.99,,2013-05-30 10:52:00,
2013-05-30 07:03:00,65.0,65.0,-100.00,SW,225,1.0,3.0,98,0.00,,,-99.99,,2013-05-30 11:03:00,
2013-05-30 07:12:00,66.0,65.0,-100.00,SW,220,1.0,4.0,98,0.00,,,-99.99,,2013-05-30 11:12:00,
2013-05-30 07:22:00,66.0,66.0,-100.00,SW,230,1.0,4.0,98,0.00,,,-99.99,,2013-05-30 11:22:00,
2013-05-30 07:32:00,67.0,66.0,-100.00,SW,230,1.0,4.0,98,0.00,,,-99.99,,2013-05-30 11:32:00,
2013-05-30 07:42:00,68.0,67.0,-100.00,SW,235,1.0,3.0,98,0.00,,,-99.99,,2013-05-30 11:42:00,
2013-05-30 07:52:00,68.0,67.0,-100.00,SW,215,2.0,6.0,98,0.00,,,-99.99,,2013-05-30 11:52:00,
2013-05-30 08:01:00,69.0,69.0,-100.00,West,265,1.0,6.0,98,0.00,,,-99.99,,2013-05-30 12:01:00,
2013-05-30 08:11:00,69.0,69.0,-100.00,SSW,210,2.0,4.0,98,0.00,,,-99.99,,2013-05-30 12:11:00,
2013-05-30 08:22:00,71.0,70.0,-100.00,SW,225,1.0,4.0,98,0.00,,,-99.99,,2013-05-30 12:22:00,
2013-05-30 08:32:00,71.0,69.0,-100.00,NW,305,1.0,2.0,95,0.00,,,-99.99,,2013-05-30 12:32:00,
2013-05-30 08:42:00,72.0,69.0,-100.00,SW,220,2.0,4.0,90,0.00,,,-99.99,,2013-05-30 12:42:00,
2013-05-30 08:52:00,73.0,68.0,-100.00,West,265,4.0,7.0,84,0.00,,,-99.99,,2013-05-30 12:52:00,
2013-05-30 09:01:00,73.0,67.0,-100.00,West,270,4.0,9.0,81,0.00,,,-99.99,,2013-05-30 13:01:00,
2013-05-30 09:11:00,74.0,67.0,-100.00,SW,220,2.0,9.0,78,0.00,,,-99.99,,2013-05-30 13:11:00,
2013-05-30 09:22:00,74.0,67.0,-100.00,SW,235,4.0,7.0,78,0.00,,,-99.99,,2013-05-30 13:22:00,
2013-05-30 09:32:00,75.0,68.0,-100.00,SW,235,4.0,9.0,77,0.00,,,-99.99,,2013-05-30 13:32:00,
2013-05-30 09:42:00,75.0,67.0,-100.00,West,280,3.0,10.0,75,0.00,,,-99.99,,2013-05-30 13:42:00,
2013-05-30 09:52:00,77.0,67.0,-100.00,West,270,1.0,8.0,72,0.00,,,-99.99,,2013-05-30 13:52:00,
2013-05-30 10:01:00,77.0,67.0,-100.00,WNW,285,3.0,7.0,70,0.00,,,-99.99,,2013-05-30 14:01:00,
2013-05-30 10:11:00,78.0,67.0,-100.00,NW,310,3.0,11.0,68,0.00,,,-99.99,,2013-05-30 14:11:00,
2013-05-30 10:22:00,78.0,67.0,-100.00,West,275,4.0,9.0,68,0.00,,,-99.99,,2013-05-30 14:22:00,
2013-05-30 10:32:00,78.0,66.0,-100.00,West,260,4.0,12.0,67,0.00,,,-99.99,,2013-05-30 14:32:00,
2013-05-30 10:42:00,79.0,66.0,-100.00,WNW,285,5.0,12.0,64,0.00,,,-99.99,,2013-05-30 14:42:00,
2013-05-30 10:52:00,79.0,65.0,-100.00,SW,225,4.0,9.0,63,0.00,,,-99.99,,2013-05-30 14:52:00,
2013-05-30 11:01:00,79.0,65.0,-100.00,WSW,245,4.0,10.0,61,0.00,,,-99.99,,2013-05-30 15:01:00,
2013-05-30 11:11:00,80.0,65.0,-100.00,North,-999,-999.0,-999.0,60,-99.99,,,-99.99,,2013-05-30 15:11:00,
2013-05-30 11:22:00,80.0,66.0,-100.00,WSW,255,2.0,14.0,61,0.00,,,-99.99,,2013-05-30 15:22:00,
2013-05-30 11:33:00,81.0,65.0,-100.00,NNW,340,4.0,9.0,58,0.00,,,-99.99,,2013-05-30 15:33:00,
2013-05-30 11:42:00,81.0,65.0,-100.00,WNW,290,1.0,9.0,58,0.00,,,-99.99,,2013-05-30 15:42:00,
2013-05-30 12:03:00,82.0,64.0,-100.00,NW,315,4.0,12.0,54,0.00,,,-99.99,,2013-05-30 16:03:00,
2013-05-30 12:12:00,83.0,65.0,-100.00,West,260,2.0,11.0,55,0.00,,,-99.99,,2013-05-30 16:12:00,
2013-05-30 12:23:00,83.0,65.0,-100.00,WNW,290,4.0,9.0,55,0.00,,,-99.99,,2013-05-30 16:23:00,
2013-05-30 12:33:00,84.0,67.0,-100.00,WSW,255,3.0,11.0,55,0.00,,,-99.99,,2013-05-30 16:33:00,
2013-05-30 12:42:00,84.0,65.0,-100.00,West,275,2.0,6.0,54,0.00,,,-99.99,,2013-05-30 16:42:00,
2013-05-30 12:52:00,82.0,64.0,-100.00,WNW,300,4.0,11.0,54,0.00,,,-99.99,,2013-05-30 16:52:00,
2013-05-30 13:02:00,83.0,63.0,-100.00,West,280,3.0,9.0,52,0.00,,,-99.99,,2013-05-30 17:02:00,
2013-05-30 13:12:00,84.0,63.0,-100.00,West,260,6.0,13.0,48,0.00,,,-99.99,,2013-05-30 17:12:00,
2013-05-30 13:22:00,85.0,65.0,-100.00,West,265,4.0,13.0,52,0.00,,,-99.99,,2013-05-30 17:22:00,
2013-05-30 13:32:00,85.0,64.0,-100.00,SW,235,3.0,9.0,48,0.00,,,-99.99,,2013-05-30 17:32:00,
2013-05-30 13:42:00,85.0,66.0,-100.00,SSW,205,3.0,9.0,53,0.00,,,-99.99,,2013-05-30 17:42:00,
2013-05-30 13:52:00,85.0,64.0,-100.00,WSW,255,4.0,9.0,49,0.00,,,-99.99,,2013-05-30 17:52:00,
2013-05-30 14:02:00,85.0,64.0,-100.00,NNW,345,4.0,12.0,49,0.00,,,-99.99,,2013-05-30 18:02:00,
2013-05-30 14:11:00,86.0,66.0,-100.00,North,-999,-999.0,-999.0,52,-99.99,,,-99.99,,2013-05-30 18:11:00,
2013-05-30 14:22:00,85.0,64.0,-100.00,NW,310,4.0,11.0,49,0.00,,,-99.99,,2013-05-30 18:22:00,
2013-05-30 14:32:00,86.0,65.0,-100.00,West,270,4.0,10.0,49,0.00,,,-99.99,,2013-05-30 18:32:00,
2013-05-30 14:42:00,86.0,64.0,-100.00,West,265,4.0,10.0,47,0.00,,,-99.99,,2013-05-30 18:42:00,
2013-05-30 14:51:00,86.0,64.0,-100.00,North,-999,-999.0,-999.0,49,-99.99,,,-99.99,,2013-05-30 18:51:00,
2013-05-30 15:01:00,85.0,64.0,-100.00,West,260,7.0,11.0,49,0.00,,,-99.99,,2013-05-30 19:01:00,
2013-05-30 15:12:00,87.0,62.0,-100.00,West,270,7.0,13.0,44,0.00,,,-99.99,,2013-05-30 19:12:00,
2013-05-30 15:23:00,87.0,63.0,-100.00,WNW,285,3.0,9.0,45,0.00,,,-99.99,,2013-05-30 19:23:00,
2013-05-30 15:32:00,87.0,63.0,-100.00,WNW,285,3.0,9.0,45,0.00,,,-99.99,,2013-05-30 19:32:00,
2013-05-30 15:42:00,87.0,63.0,-100.00,WNW,285,3.0,9.0,45,0.00,,,-99.99,,2013-05-30 19:42:00,
2013-05-30 15:52:00,87.0,63.0,-100.00,WNW,285,3.0,9.0,45,0.00,,,-99.99,,2013-05-30 19:52:00,
2013-05-30 16:01:00,87.0,63.0,-100.00,WNW,285,3.0,9.0,45,0.00,,,-99.99,,2013-05-30 20:01:00,
2013-05-30 17:01:00,88.0,60.0,-100.00,WSW,250,6.0,11.0,39,0.00,,,-99.99,,2013-05-30 21:01:00,
2013-05-30 17:11:00,88.0,63.0,-100.00,West,280,5.0,11.0,43,0.00,,,-99.99,,2013-05-30 21:11:00,
2013-05-30 17:22:00,87.0,60.0,-100.00,NNW,335,6.0,11.0,41,0.00,,,-99.99,,2013-05-30 21:22:00,
2013-05-30 17:33:00,87.0,61.0,-100.00,West,275,9.0,14.0,41,0.00,,,-99.99,,2013-05-30 21:33:00,
2013-05-30 17:43:00,86.0,61.0,-100.00,West,270,2.0,11.0,43,0.00,,,-99.99,,2013-05-30 21:43:00,
2013-05-30 17:53:00,87.0,61.0,-100.00,West,260,1.0,7.0,42,0.00,,,-99.99,,2013-05-30 21:53:00,
2013-05-30 18:02:00,87.0,61.0,-100.00,West,265,2.0,7.0,42,0.00,,,-99.99,,2013-05-30 22:02:00,
2013-05-30 18:12:00,86.0,60.0,-100.00,WSW,245,4.0,6.0,41,0.00,,,-99.99,,2013-05-30 22:12:00,
2013-05-30 18:23:00,86.0,61.0,-100.00,West,265,3.0,7.0,43,0.00,,,-99.99,,2013-05-30 22:23:00,
2013-05-30 18:33:00,86.0,61.0,-100.00,North,-999,-999.0,-999.0,42,0.00,,,-99.99,,2013-05-30 22:33:00,
2013-05-30 18:42:00,86.0,63.0,-100.00,West,265,1.0,6.0,46,0.00,,,-99.99,,2013-05-30 22:42:00,
2013-05-30 18:52:00,86.0,67.0,-100.00,West,280,1.0,4.0,53,0.00,,,-99.99,,2013-05-30 22:52:00,
2013-05-30 19:02:00,85.0,61.0,-100.00,SW,235,2.0,7.0,45,0.00,,,-99.99,,2013-05-30 23:02:00,
2013-05-30 19:11:00,85.0,63.0,-100.00,SW,230,2.0,4.0,47,0.00,,,-99.99,,2013-05-30 23:11:00,
2013-05-30 19:22:00,84.0,68.0,-100.00,WSW,240,1.0,4.0,57,0.00,,,-99.99,,2013-05-30 23:22:00,
2013-05-30 19:32:00,83.0,64.0,-100.00,WSW,250,1.0,2.0,53,0.00,,,-99.99,,2013-05-30 23:32:00,
2013-05-30 19:41:00,82.0,65.0,-100.00,WSW,255,1.0,3.0,57,0.00,,,-99.99,,2013-05-30 23:41:00,
2013-05-30 19:52:00,80.0,66.0,-100.00,South,170,0.0,2.0,62,0.00,,,-99.99,,2013-05-30 23:52:00,
2013-05-30 20:01:00,79.0,67.0,-100.00,WSW,245,1.0,1.0,66,0.00,,,-99.99,,2013-05-31 00:01:00,
2013-05-30 20:11:00,77.0,67.0,-100.00,WSW,255,1.0,1.0,71,0.00,,,-99.99,,2013-05-31 00:11:00,
2013-05-30 20:22:00,76.0,67.0,-100.00,SW,230,1.0,1.0,72,0.00,,,-99.99,,2013-05-31 00:22:00,
2013-05-30 20:32:00,75.0,66.0,-100.00,WSW,250,0.0,1.0,74,0.00,,,-99.99,,2013-05-31 00:32:00,
2013-05-30 20:42:00,74.0,66.0,-100.00,SW,225,1.0,1.0,75,0.00,,,-99.99,,2013-05-31 00:42:00,
2013-05-30 20:52:00,73.0,66.0,-100.00,SW,230,1.0,2.0,78,0.00,,,-99.99,,2013-05-31 00:52:00,
2013-05-30 21:01:00,72.0,66.0,-100.00,SW,225,1.0,2.0,81,0.00,,,-99.99,,2013-05-31 01:01:00,
2013-05-30 21:12:00,72.0,67.0,-100.00,West,265,0.0,1.0,84,0.00,,,-99.99,,2013-05-31 01:12:00,
2013-05-30 21:21:00,71.0,66.0,-100.00,SSW,210,1.0,1.0,85,0.00,,,-99.99,,2013-05-31 01:21:00,
2013-05-30 21:32:00,70.0,66.0,-100.00,SSW,195,0.0,1.0,88,0.00,,,-99.99,,2013-05-31 01:32:00,
2013-05-30 21:42:00,70.0,66.0,-100.00,WSW,255,1.0,2.0,89,0.00,,,-99.99,,2013-05-31 01:42:00,
2013-05-30 21:52:00,69.0,67.0,-100.00,SW,230,0.0,1.0,90,0.00,,,-99.99,,2013-05-31 01:52:00,
2013-05-30 22:02:00,69.0,67.0,-100.00,West,275,0.0,1.0,91,0.00,,,-99.99,,2013-05-31 02:02:00,
2013-05-30 22:11:00,69.0,67.0,-100.00,SW,225,1.0,1.0,92,0.00,,,-99.99,,2013-05-31 02:11:00,
2013-05-30 22:22:00,69.0,66.0,-100.00,SSW,210,1.0,1.0,92,0.00,,,-99.99,,2013-05-31 02:22:00,
2013-05-30 22:32:00,68.0,66.0,-100.00,SSE,150,0.0,1.0,93,0.00,,,-99.99,,2013-05-31 02:32:00,
2013-05-30 22:42:00,68.0,66.0,-100.00,West,270,1.0,1.0,93,0.00,,,-99.99,,2013-05-31 02:42:00,
2013-05-30 22:51:00,68.0,66.0,-100.00,WSW,240,0.0,2.0,94,0.00,,,-99.99,,2013-05-31 02:51:00,
2013-05-30 23:01:00,67.0,66.0,-100.00,SW,230,0.0,2.0,94,0.00,,,-99.99,,2013-05-31 03:01:00,
2013-05-30 23:11:00,67.0,66.0,-100.00,SSW,195,0.0,1.0,95,0.00,,,-99.99,,2013-05-31 03:11:00,
2013-05-30 23:21:00,67.0,66.0,-100.00,SW,235,1.0,1.0,95,0.00,,,-99.99,,2013-05-31 03:21:00,
2013-05-30 23:33:00,67.0,66.0,-100.00,SSE,155,0.0,1.0,95,0.00,,,-99.99,,2013-05-31 03:33:00,
2013-05-30 23:43:00,67.0,65.0,-100.00,NW,315,0.0,1.0,96,0.00,,,-99.99,,2013-05-31 03:43:00,
2013-05-30 23:53:00,66.0,65.0,-100.00,WSW,240,1.0,1.0,96,0.00,,,-99.99,,2013-05-31 03:53:00,